• Em Portugal
  • Lista de países
  • Para 7 dias
  • Temperatura da água
  • Mapas de satélite
  • Mapa do tempo
  • Widgets de tempo
  • user-avatar
    Iniciar Sessão

    Previsão horária em Salyan

    Hoje, 20 Setembro, Quinta-feira

    Tempo Temperatura Precipitação Vento Pressão Humidade
    00:00 +21°C° 0 mm 1 m/s 650 mmHg 78%
    01:00 +20°C° 0 mm 1 m/s 650 mmHg 77%
    02:00 +19°C° 0 mm 2 m/s 650 mmHg 76%
    03:00 +19°C° 0 mm 2 m/s 650 mmHg 74%
    04:00 +19°C° 0 mm 2 m/s 650 mmHg 73%
    05:00 +19°C° 0 mm 2 m/s 650 mmHg 71%
    06:00 +22°C° 0 mm 1 m/s 651 mmHg 65%
    07:00 +24°C° 0 mm 1 m/s 652 mmHg 59%
    08:00 +25°C° 0 mm 0 m/s 653 mmHg 52%
    09:00 +28°C° 0 mm 1 m/s 653 mmHg 49%
    10:00 +29°C° 0 mm 1 m/s 653 mmHg 46%
    11:00 +31°C° 0 mm 2 m/s 653 mmHg 43%
    12:00 +31°C° 0 mm 2 m/s 653 mmHg 45%
    13:00 +31°C° 0 mm 2 m/s 652 mmHg 46%
    14:00 +30°C° 0 mm 2 m/s 652 mmHg 47%
    15:00 +29°C° 0.5 mm 2 m/s 652 mmHg 57%
    16:00 +27°C° 0.5 mm 1 m/s 651 mmHg 66%
    17:00 +26°C° 0.5 mm 1 m/s 651 mmHg 75%
    18:00 +24°C° 1 mm 1 m/s 651 mmHg 78%
    19:00 +23°C° 1 mm 1 m/s 652 mmHg 81%
    20:00 +22°C° 1 mm 1 m/s 652 mmHg 84%
    21:00 +22°C° 0.2 mm 1 m/s 652 mmHg 84%
    22:00 +21°C° 0.2 mm 1 m/s 652 mmHg 84%
    23:00 +21°C° 0.2 mm 1 m/s 652 mmHg 83%

    Amanhã, 21 Setembro, Sexta-feira

    Tempo Temperatura Precipitação Vento Pressão Humidade
    00:00 +21°C° 0.1 mm 1 m/s 652 mmHg 83%
    01:00 +20°C° 0.1 mm 1 m/s 652 mmHg 83%
    02:00 +20°C° 0.1 mm 1 m/s 651 mmHg 83%
    03:00 +20°C° 0 mm 1 m/s 651 mmHg 82%
    04:00 +20°C° 0 mm 1 m/s 651 mmHg 82%
    05:00 +20°C° 0 mm 1 m/s 651 mmHg 81%
    06:00 +21°C° 0 mm 1 m/s 652 mmHg 77%
    07:00 +23°C° 0 mm 1 m/s 653 mmHg 73%
    08:00 +24°C° 0 mm 1 m/s 653 mmHg 69%
    09:00 +25°C° 0 mm 1 m/s 654 mmHg 67%
    10:00 +25°C° 0 mm 2 m/s 654 mmHg 66%
    11:00 +26°C° 0 mm 2 m/s 654 mmHg 64%
    12:00 +25°C° 0.4 mm 2 m/s 653 mmHg 70%
    13:00 +24°C° 0.4 mm 2 m/s 653 mmHg 76%
    14:00 +23°C° 0.4 mm 1 m/s 652 mmHg 82%
    15:00 +23°C° 0.6 mm 1 m/s 652 mmHg 83%
    16:00 +23°C° 0.6 mm 1 m/s 652 mmHg 84%
    17:00 +22°C° 0.6 mm 1 m/s 652 mmHg 86%
    18:00 +22°C° 0.4 mm 1 m/s 652 mmHg 85%
    19:00 +22°C° 0.4 mm 1 m/s 653 mmHg 84%
    20:00 +21°C° 0.4 mm 1 m/s 653 mmHg 83%
    21:00 +21°C° 0.2 mm 1 m/s 653 mmHg 82%
    22:00 +21°C° 0.2 mm 1 m/s 653 mmHg 81%
    23:00 +21°C° 0.2 mm 1 m/s 653 mmHg 80%

    Depois de amanhã, 22 Setembro, Sábado

    Tempo Temperatura Precipitação Vento Pressão Humidade
    00:00 +21°C° 0.4 mm 1 m/s 653 mmHg 80%
    01:00 +21°C° 0.4 mm 1 m/s 652 mmHg 80%
    02:00 +20°C° 0.4 mm 1 m/s 652 mmHg 80%
    03:00 +20°C° 0.2 mm 1 m/s 652 mmHg 80%
    04:00 +20°C° 0.2 mm 1 m/s 652 mmHg 79%
    05:00 +20°C° 0.2 mm 1 m/s 652 mmHg 79%
    06:00 +21°C° 0.1 mm 1 m/s 653 mmHg 75%
    07:00 +23°C° 0.1 mm 1 m/s 654 mmHg 71%
    08:00 +24°C° 0.1 mm 1 m/s 655 mmHg 67%
    09:00 +25°C° 0.2 mm 2 m/s 655 mmHg 66%
    10:00 +25°C° 0.2 mm 2 m/s 655 mmHg 66%
    11:00 +26°C° 0.2 mm 2 m/s 655 mmHg 65%
    12:00 +25°C° 0.4 mm 2 m/s 654 mmHg 68%
    13:00 +25°C° 0.4 mm 2 m/s 654 mmHg 70%
    14:00 +25°C° 0.4 mm 1 m/s 653 mmHg 72%
    15:00 +25°C° 0.3 mm 1 m/s 653 mmHg 74%
    16:00 +24°C° 0.3 mm 1 m/s 653 mmHg 75%
    17:00 +24°C° 0.3 mm 1 m/s 653 mmHg 77%
    18:00 +23°C° 0.1 mm 1 m/s 653 mmHg 78%
    19:00 +22°C° 0.1 mm 1 m/s 653 mmHg 79%
    20:00 +21°C° 0.1 mm 1 m/s 653 mmHg 80%
    21:00 +21°C° 0.1 mm 1 m/s 653 mmHg 79%
    22:00 +21°C° 0.1 mm 1 m/s 653 mmHg 78%
    23:00 +21°C° 0.1 mm 1 m/s 653 mmHg 77%

    23 Setembro, Domingo

    Tempo Temperatura Precipitação Vento Pressão Humidade
    00:00 +20°C° 0.1 mm 1 m/s 653 mmHg 77%
    01:00 +20°C° 0.1 mm 1 m/s 653 mmHg 76%
    02:00 +20°C° 0.1 mm 1 m/s 652 mmHg 75%
    03:00 +20°C° 0 mm 1 m/s 652 mmHg 75%
    04:00 +20°C° 0 mm 1 m/s 653 mmHg 75%
    05:00 +20°C° 0 mm 1 m/s 653 mmHg 74%
    06:00 +22°C° 0 mm 1 m/s 653 mmHg 69%
    07:00 +22°C° 0 mm 0 m/s 654 mmHg 65%
    08:00 +24°C° 0 mm 0 m/s 655 mmHg 60%
    09:00 +27°C° 0 mm 1 m/s 655 mmHg 58%
    10:00 +28°C° 0 mm 1 m/s 655 mmHg 56%
    11:00 +29°C° 0 mm 2 m/s 655 mmHg 54%
    12:00 +29°C° 0.3 mm 2 m/s 655 mmHg 57%
    13:00 +28°C° 0.3 mm 2 m/s 654 mmHg 61%
    14:00 +28°C° 0.3 mm 2 m/s 653 mmHg 65%
    15:00 +27°C° 0.9 mm 2 m/s 653 mmHg 70%
    16:00 +26°C° 0.9 mm 1 m/s 653 mmHg 75%
    17:00 +25°C° 0.9 mm 1 m/s 653 mmHg 81%
    18:00 +24°C° 0.1 mm 1 m/s 653 mmHg 83%
    19:00 +23°C° 0.1 mm 1 m/s 653 mmHg 85%
    20:00 +22°C° 0.1 mm 1 m/s 653 mmHg 87%
    21:00 +22°C° 0.3 mm 1 m/s 653 mmHg 87%
    22:00 +21°C° 0.3 mm 1 m/s 653 mmHg 86%
    23:00 +21°C° 0.3 mm 1 m/s 653 mmHg 86%

    24 Setembro, Segunda-feira

    Tempo Temperatura Precipitação Vento Pressão Humidade
    00:00 +21°C° 0.7 mm 1 m/s 652 mmHg 87%
    01:00 +20°C° 0.7 mm 1 m/s 652 mmHg 88%
    02:00 +20°C° 0.7 mm 1 m/s 652 mmHg 89%
    03:00 +20°C° 0.2 mm 1 m/s 652 mmHg 89%
    04:00 +20°C° 0.2 mm 1 m/s 652 mmHg 88%
    05:00 +20°C° 0.2 mm 1 m/s 651 mmHg 88%
    06:00 +22°C° 0 mm 1 m/s 652 mmHg 84%
    07:00 +23°C° 0 mm 1 m/s 653 mmHg 79%
    08:00 +23°C° 0 mm 0 m/s 654 mmHg 75%
    09:00 +26°C° 0.1 mm 1 m/s 654 mmHg 70%
    10:00 +27°C° 0.1 mm 2 m/s 654 mmHg 66%
    11:00 +28°C° 0.1 mm 2 m/s 654 mmHg 61%
    12:00 +28°C° 0.6 mm 2 m/s 653 mmHg 64%
    13:00 +28°C° 0.6 mm 2 m/s 653 mmHg 67%
    14:00 +27°C° 0.6 mm 2 m/s 652 mmHg 70%
    15:00 +26°C° 0.4 mm 2 m/s 652 mmHg 75%
    16:00 +25°C° 0.4 mm 2 m/s 652 mmHg 79%
    17:00 +24°C° 0.4 mm 1 m/s 651 mmHg 84%
    18:00 +23°C° 0.1 mm 1 m/s 652 mmHg 86%
    19:00 +23°C° 0.1 mm 1 m/s 652 mmHg 88%
    20:00 +22°C° 0.1 mm 1 m/s 652 mmHg 90%
    21:00 +22°C° 0.1 mm 1 m/s 652 mmHg 90%
    22:00 +21°C° 0.1 mm 1 m/s 652 mmHg 90%
    23:00 +21°C° 0.1 mm 1 m/s 652 mmHg 90%

    25 Setembro, Terça-feira

    Tempo Temperatura Precipitação Vento Pressão Humidade
    00:00 +21°C° 0 mm 1 m/s 651 mmHg 90%
    01:00 +21°C° 0 mm 1 m/s 651 mmHg 90%
    02:00 +20°C° 0 mm 1 m/s 650 mmHg 89%
    03:00 +20°C° 0 mm 1 m/s 650 mmHg 89%
    04:00 +20°C° 0 mm 1 m/s 650 mmHg 89%
    05:00 +20°C° 0 mm 1 m/s 650 mmHg 89%
    06:00 +22°C° 0 mm 1 m/s 651 mmHg 83%
    07:00 +23°C° 0 mm 1 m/s 652 mmHg 78%
    08:00 +25°C° 0 mm 1 m/s 653 mmHg 73%
    09:00 +26°C° 0 mm 1 m/s 653 mmHg 68%
    10:00 +27°C° 0 mm 2 m/s 653 mmHg 63%
    11:00 +28°C° 0 mm 2 m/s 653 mmHg 59%
    12:00 +28°C° 0.3 mm 2 m/s 652 mmHg 61%
    13:00 +28°C° 0.3 mm 2 m/s 652 mmHg 62%
    14:00 +28°C° 0.3 mm 3 m/s 651 mmHg 64%
    15:00 +27°C° 0.4 mm 2 m/s 651 mmHg 70%
    16:00 +26°C° 0.4 mm 2 m/s 651 mmHg 76%
    17:00 +24°C° 0.4 mm 1 m/s 650 mmHg 83%
    18:00 +23°C° 0.7 mm 1 m/s 650 mmHg 86%
    19:00 +23°C° 0.7 mm 1 m/s 651 mmHg 88%
    20:00 +22°C° 0.7 mm 1 m/s 651 mmHg 91%
    21:00 +21°C° 0.2 mm 1 m/s 650 mmHg 91%
    22:00 +21°C° 0.2 mm 1 m/s 650 mmHg 91%
    23:00 +21°C° 0.2 mm 1 m/s 650 mmHg 91%
    Mostrar mais